Find Tianmu 1-15

NORAD ID: 58700 Int'l Des: 2024-004 Owner: TIANMU Country: CN operational
LEOCIRCULARRETROGRADESSO

当前视图

正在加载3D地球...

About Tianmu 1-15

Tianmu 1-15 (NORAD 58700) is a satellite launched Jan 5, 2024 by TIANMU of CN. It operates in LEO, CIRCULAR, RETROGRADE, SSO orbit with a mass of 50.00 kg.

即将过境

Passes for default location (London). Set your location on the main map for personalized predictions.

高度历史

Loading altitude history...

两行轨道根数

1 58700U 24004A 26195.16424721 .00003174 00000-0 12292-3 0 9994
2 58700 97.4666 21.3549 0005970 232.8528 127.2166 15.26907658139899
Epoch: Jul 14, 2026 • Age: 12 hours

当前状态

高度 485.9 km
远地点 / 近地点 N/A
速度 7.62 km/s
星下点 15.92°N, 36.44°E
发射日期 Jan 5, 2024
运行时间 2.5 years
类型 other

技术详情

分类 Payload
质量 50.00 kg
干质量 50.00 kg
总质量 50.00 kg
长度 1.50 m
直径 1.00 m
跨度 1.50 m
形状 Box
制造商 TIANMU
平台类型 Tianmu
阶段状态 In Orbit
所有者/国家 TIANMU/CN

Most Searched